Volver al catálogo

ERS 2 DEB

ActivoSSO
NORAD 35391·DEBRIS·🇪🇺 EU

Lanzado Apr 21, 1995 desde Guiana Space Centre

Loading…

Próximos Pases (próximas 24 horas)

TLE

ActualizadoSource: Space-Track

Época: Sep 14, 2026, 10:38 UTC

1 35391U 95021E   26257.44332112  .00001413  00000-0  38133-3 0  9990
2 35391  98.6236 242.6735 0004428 191.7887 321.4072 14.49449254 10517

Sigue ERS 2 DEB en tiempo real con AllMySat

Download on the App Store